Погода в Пальмановой

Испания     39°31′38″N   2°32′21″E
темп.,
°C
ветер,
м/с
пор.,
м/с
влажн.,
%
обл.,
%
осадки,
мм/ч
давл.,
гПа
погр.,
м
2 марта, вт
вт201:00+12всв91581100 0.0 1024500
04:00+12всв8138593 0.0 1023366
07:00+12всв7119096 0.0 1024436
10:00+14в6108195 0.0 1026568
13:00+16в7107598 0.0 1027525
16:00+16в577682 0.0 1027537
19:00+14всв578591 0.0 1028317
22:00+12всв798999 0.0 1029381
3 марта, ср
ср301:00+12всв698988 0.0 1029366
04:00+12всв578716 0.0 1029431
07:00+12всв578429 0.0 1029461
10:00+15всв687555 0.0 1029873
13:00+16в686948 0.1 1029777
16:00+16вюв68671 0.0 1027767
19:00+13всв598435 0.0 1027434
22:00+11всв699048 0.0 1027475
4 марта, чт
чт401:00+11всв588926 0.0 1026371
04:00+11всв57860 0.0 1024313
07:00+11св578718 0.0 1023284
10:00+14в687579 0.0 1023816
13:00+15вюв566486 0.0 1022950
16:00+14в347099 0.1 1020543
19:00+13всв347994 0.1 1019237
22:00+10всв458473 0.0 1020235
5 марта, пт
пт501:00+10св348143 0.0 1018148
04:00+10с337626 0.0 101795
07:00+10ссв228213 0.0 1016100
10:00+13в22710 0.0 1017318
13:00+14зюз32660 0.0 1018646
16:00+15сз33670 0.0 1017570
19:00+13св127911 0.0 101750
22:00+11всв337890 0.0 101993
6 марта, сб
сб601:00+11всв236795 0.0 1019102
04:00+10св2373100 0.0 1019208
07:00+10св4583100 0.0 1020249
10:00+14всв5872100 0.0 1022644
13:00+16в796784 0.0 1023870
16:00+15в796597 0.0 10221028
19:00+11всв687488 0.0 1022468
22:00+10всв6876100 0.0 1024306